Belleville, IL

7:09 AM CST on December 16, 2017 (GMT -0600)
Scott Air Force Base-Midamerica

Weather History for KBLV - February, 2013

Change the Weather History Date:

Friday, February 1, 2013

  Actual Average Record
Temperature  
Mean Temperature 16 °F -  
Max Temperature 26 °F 44 °F 69 °F (1989)
Min Temperature 7 °F 25 °F -16 °F (1965)
Degree Days  
Heating Degree Days 48    
Moisture  
Dew Point 5 °F    
Average Humidity 57    
Maximum Humidity 70    
Minimum Humidity 45    
Precipitation  
Precipitation 0.00 in - - ()
Sea Level Pressure  
Sea Level Pressure 30.42 in    
Wind  
Wind Speed 9 mph (West)    
Max Wind Speed 15 mph    
Max Gust Speed 23 mph    
Visibility 10 miles    
Events      
Averages and records for this station are not official NWS values.
T = Trace of Precipitation, MM = Missing Value Source: NWS Daily Summary

Daily Weather History Graph

Daily Weather History Graph

Search for Another Location

Airport or City:

Trip Planner

Search our weather history database for the weather conditions in past years. The results will help you decide how hot, cold, wet, or windy it might be!

Date:

Astronomy

Feb. 01, 2013 Rise Set
Actual Time 7:04 AM CST 5:21 PM CST
Civil Twilight 6:36 AM CST 5:49 PM CST
Nautical Twilight 6:04 AM CST 6:21 PM CST
Astronomical Twilight 5:33 AM CST 6:52 PM CST
Moon 11:23 PM CST (2/1) 9:42 AM CST (2/1)
Length of Visible Light 11h 13m
Length of Day
10h 17m
Waning Gibbous, 70% of the Moon is Illuminated
Feb 1
Waning Gibbous
Feb 3
Last Quarter
Feb 10
New
Feb 17
First Quarter
Feb 25
Full

Hourly Weather History & Observations

Time (CST) Temp. Windchill Dew Point Humidity Pressure Visibility Wind Dir Wind Speed Gust Speed Precip Events Conditions
12:55 AM 10.9 °F -5.4 °F -0.0 °F 61% 30.41 in 10.0 mi NW 15.0 mph 19.6 mph N/A   Clear
1:55 AM 10.2 °F -6.3 °F -0.9 °F 61% 30.43 in 10.0 mi WNW 15.0 mph 23.0 mph N/A   Clear
2:55 AM 9.5 °F -5.2 °F 0.1 °F 66% 30.44 in 10.0 mi NW 11.5 mph - N/A   Clear
3:55 AM 8.8 °F -4.4 °F -0.0 °F 67% 30.45 in 10.0 mi WNW 9.2 mph - N/A   Clear
4:55 AM 8.2 °F -5.1 °F -0.9 °F 66% 30.45 in 10.0 mi WNW 9.2 mph - N/A   Clear
5:55 AM 8.2 °F -3.0 °F -1.7 °F 64% 30.48 in 10.0 mi West 6.9 mph - N/A   Clear
6:55 AM 7.0 °F -4.5 °F -0.9 °F 70% 30.49 in 10.0 mi WNW 6.9 mph - N/A   Clear
7:55 AM 9.5 °F -1.5 °F 0.5 °F 67% 30.51 in 10.0 mi West 6.9 mph - N/A   Clear
8:55 AM 11.7 °F 1.1 °F -0.8 °F 58% 30.53 in 10.0 mi WNW 6.9 mph - N/A   Clear
9:55 AM 13.8 °F 2.7 °F 2.1 °F 60% 30.54 in 10.0 mi West 8.1 mph - N/A   Clear
10:55 AM 16.0 °F 6.3 °F 2.7 °F 56% 30.53 in 10.0 mi WSW 6.9 mph - N/A   Clear
11:55 AM 18.7 °F 13.5 °F 3.9 °F 53% 30.51 in 10.0 mi Variable 3.5 mph - N/A   Clear
12:55 PM 21.2 °F 13.6 °F 5.5 °F 51% 30.48 in 10.0 mi WNW 5.8 mph - N/A   Clear
1:55 PM 23.7 °F 16.6 °F 6.6 °F 48% 30.44 in 10.0 mi SW 5.8 mph - N/A   Clear
2:55 PM 24.6 °F 20.3 °F 6.1 °F 45% 30.42 in 10.0 mi Variable 3.5 mph - N/A   Clear
3:55 PM 26.1 °F 20.5 °F 7.2 °F 45% 30.40 in 10.0 mi Variable 4.6 mph - N/A   Overcast
4:55 PM 25.7 °F 20.1 °F 7.3 °F 46% 30.38 in 10.0 mi Variable 4.6 mph - N/A   Clear
5:55 PM 24.6 °F - 9.3 °F 52% 30.38 in 10.0 mi Calm Calm - N/A   Clear
6:55 PM 26.1 °F 19.4 °F 10.2 °F 51% 30.37 in 10.0 mi SE 5.8 mph - N/A   Mostly Cloudy
7:55 PM 26.2 °F 18.6 °F 11.8 °F 55% 30.33 in 10.0 mi SSE 6.9 mph - N/A   Mostly Cloudy
8:55 PM 26.2 °F 19.6 °F 12.6 °F 56% 30.32 in 10.0 mi Variable 5.8 mph - N/A   Clear
9:55 PM 26.4 °F 19.8 °F 13.8 °F 59% 30.31 in 10.0 mi Variable 5.8 mph - N/A   Partly Cloudy
10:55 PM 26.2 °F 18.6 °F 14.7 °F 62% 30.30 in 10.0 mi Variable 6.9 mph - N/A   Clear
11:55 PM 26.6 °F 20.0 °F 14.0 °F 59% 30.27 in 10.0 mi Variable 5.8 mph - N/A   Mostly Cloudy